Location: Unspecified
(0.0000°N, 0.0000°E)
Time: 07:30:43
(UTC+00:00)

Vanguard 3 - Pass Details

Date: 15 December 2017
Orbit: 508 x 3264 km, 33.3° (Epoch: 23 June)

Event Time Altitude Azimuth Distance (km) Brightness Sun altitude
Rises 07:42:26 0° 236° (SW) 6,656 11.5 24.5°
Reaches altitude 10° 07:47:26 10° 236° (SW) 5,287 11.1 25.6°
Maximum altitude 08:01:42 83° 323° (NW) 1,670 9.1 28.8°
Drops below altitude 10° 08:09:23 10° 51° (NE) 3,004 10.4 30.5°
Sets 08:11:30 0° 52° (NE) 3,708 10.8 31.0°
